Location: Asheville, NC
(35.6000°N, 82.5500°W)
Time: 06:41:58
(UTC-04:00)

KKS-1 - Visible Passes

Search period start: 22 July 2018 00:00
Search period end: 01 August 2018 00:00
Orbit: 637 x 650 km, 98.4° (Epoch: 21 July)

Date Brightness Start Highest point End Pass type
(mag) Time Alt. Az. Time Alt. Az. Time Alt. Az.
23 Jul ? 05:38:12 10° E 05:40:42 15° ENE 05:43:13 10° NNE visible
24 Jul ? 06:01:25 10° SE 06:05:08 27° ENE 06:08:53 10° NNE visible
27 Jul ? 05:40:11 10° ESE 05:42:47 15° ENE 05:45:23 10° NNE visible
28 Jul ? 06:03:26 10° SE 06:07:13 28° ENE 06:10:59 10° NNE visible
31 Jul ? 05:42:10 10° ESE 05:44:50 16° ENE 05:47:31 10° NNE visible
